Regional Weather Roundup
Issued by NWS Midland/Odessa, TX

Skip options and go directly to product.
Home | Oldest Version | Previous Version | Current Version | All | Text Only | Save Text | Print | Product List | Glossary Off

Skip product version selection by date and time.   

164
ASUS44 KMAF 260310
RWRMAF
MIDLAND AREA WEATHER ROUNDUP
NATIONAL WEATHER SERVICE MIDLAND TX
1000 PM CDT SUN SEP 25 2016

...IN SOUTHWEST TEXAS AND SOUTHEAST NEW MEXICO...

CITY           SKY/WX    TMP DP  RH WIND       PRES   REMARKS
ALPINE         CLOUDY    58  57  97 NE14      30.31R
ANDREWS        CLOUDY    58  55  88 NE12      30.27R
ARTESIA        CLOUDY    66  45  45 NE5       30.32R
BIG SPRING     CLOUDY    60  58  92 N13G21    30.26R
CARLSBAD       CLOUDY    63  50  62 N7        30.29R
DRYDEN           N/A     67  66  97 N9        30.12R
FORT STOCKTON  CLOUDY    60  59  96 NE17      30.22R
GUAD PASS      CLOUDY    54  47  77 NE33G45   30.31R
HOBBS          CLOUDY    61  48  63 NE14      30.30R
MARFA          CLOUDY   N/A N/A N/A NE18      30.25R
MIDLAND AIRPK  CLOUDY    60  56  85 NE18G24   30.26R
MIDLAND INTL   CLOUDY    60  55  83 NE15      30.24R
ODESSA         CLOUDY    60  54  80 NE23G31   30.25R
PECOS          CLOUDY    61  59  92 N13       30.24R
PRESIDIO       NOT AVBL
SEMINOLE       CLOUDY    60  52  75 NE8       30.29R
SNYDER           N/A     58  57  95 CALM      30.25R
WINK           CLOUDY    61  56  83 NE15G22   30.23R
$$
...OTHER STATIONS IN TEXAS...

CITY           SKY/WX    TMP DP  RH WIND       PRES   REMARKS
ABILENE        CLOUDY    63  62  97 N13       30.19R
AMARILLO       CLEAR     57  45  64 NE7       30.35R
AUSTIN         CLOUDY    73  72  96 NE6       30.01S
BROWNSVILLE    PTCLDY    83  75  77 SE6       29.92R
CORPUS CHRISTI CLOUDY    84  77  79 E7        29.95R
DALLAS FTW     CLOUDY    75  69  81 N12       30.09R
DEL RIO        CLOUDY    72  68  87 NW3       30.04R
EL PASO        CLOUDY    68  45  43 E17G23    30.24R
HOUSTON INT    CLOUDY    74  71  91 N5        30.01R
LUBBOCK        CLOUDY    61  48  62 NE8       30.29R
SAN ANGELO     CLOUDY    64  61  90 N14G21    30.16R
SAN ANTONIO    LGT RAIN  72  69  90 NE6       30.03R
WACO           CLOUDY    73  72  96 NE3       30.06S
WICHITA FALLS  NOT AVBL
$$
...OTHER LOCATIONS IN NEW MEXICO...

CITY           SKY/WX    TMP DP  RH WIND       PRES   REMARKS
ALAMAGORDO     CLEAR     68  41  37 E22G32    30.22R
ALBUQUERQUE    CLOUDY    65  36  34 E13       30.36R
CANNON AFB     PTCLDY    54  43  67 NE8       30.36R
CLOVIS         CLEAR     54  41  62 NE8       30.36R
HOLLOMAN AFB   MOCLDY    69  42  38 NE15      30.21R
ROSWELL        PTCLDY    64  43  46 E6        30.32R
RUIDOSO        CLOUDY    54  39  58 E9        30.47R
SANTA FE       CLOUDY    58  34  40 SE14      30.42R
TRUTH OR CONSE PTCLDY    65  39  38 N10       30.28R
TUCUMCARI      CLEAR     58  34  40 NE10      30.35R
$$

USA.gov is the U.S. government's official web portal to all federal, state and local government web resources and services.